Miscellaneous Local Product
Issued by NWS North Platte, NE

Home | Current Version | Previous Version | Text Only | Print | Product List | Glossary On
Versions: 1 2 3 4 5 6 7 8 9 10 11 12 13 14 15 16 17 18 19 20 21 22 23 24 25 26 27 28 29 30 31 32 33 34 35 36 37 38 39 40 41 42 43 44 45 46 47 48 49 50
000
AXUS43 KLBF 222210
MISLBF


WESTERN AND NORTH CENTRAL NEBRASKA HOURLY WEATHER ROUNDUP
NATIONAL WEATHER SERVICE NORTH PLATTE NE
500 PM CDT SUN OCT 22 2017

NOTE: "FAIR" INDICATES FEW OR NO CLOUDS BELOW 12,000 FEET WITH NO
SIGNIFICANT WEATHER AND/OR OBSTRUCTIONS TO VISIBILITY.

NOTE: STATIONS NOT REPORTING VARIABLES SUCH AS SKY/WEATHER OR
PRESSURE ARE PROVIDED BY RAWS AND APRS NETWORKS AND ARE NOT UNDER
NATIONAL WEATHER SERVICE QUALITY CONTROL.

...OBSERVATIONS IN AND NEAR THE EASTERN PANHANDLE OF NEBRASKA...

CITY           SKY/WX    TMP DP  RH WIND       PRES   REMARKS
PINE RIDGE     CLOUDY    68  29  23 W15G23    29.90F
GORDON         FAIR      69  29  22 W16G24    29.91F
CHADRON        CLOUDY    70  26  19 W15G25    29.90F
ALLIANCE       CLOUDY    65  29  25 W21G30    29.96S
SIDNEY         SUNNY     69  28  21 NW20G30   30.02F
CRESCENT LAKE    N/A     68  30  24 W16G23      N/A
$$

...OBSERVATIONS IN NORTHERN NEBRASKA AND FAR SOUTHERN SOUTH DAKOTA...

CITY           SKY/WX    TMP DP  RH WIND       PRES   REMARKS
WINNER         FAIR      70  32  24 W10       29.86F
VALENTINE      SUNNY     67  30  25 W9        29.89F
THEDFORD       SUNNY     70  32  25 W13       29.95S
AINSWORTH      SUNNY     66  32  27 W10       29.92S
O`NEILL        SUNNY     69  32  25 SW13      29.93S
ORD            SUNNY     68  30  24 SW14      29.95F
BROKEN BOW     SUNNY     69  28  21 SW13G21   29.96F
VALENTINE NWR    N/A     69  28  21 W14G23      N/A
HALSEY           N/A     69  26  20 SW7G21      N/A
BUTTE            N/A     67  31  26 W12G20      N/A
CHAMBERS         N/A     66  30  26 SW5         N/A
EWING            N/A     68  33  27 SW12        N/A
$$

...OBSERVATIONS IN SOUTHWEST NEBRASKA AND FAR NORTHEAST COLORADO...

CITY           SKY/WX    TMP DP  RH WIND       PRES   REMARKS
HOLYOKE        FAIR      73  27  17 W13G20    30.03F
IMPERIAL       SUNNY     72  25  17 W12G25    30.01F
OGALLALA       SUNNY     71  28  19 SW12      29.98F
NORTH PLATTE   SUNNY     71  32  23 W15       29.98S
MCCOOK         SUNNY     72  24  16 SW14      30.01F
LEXINGTON      SUNNY     71  24  17 SW12      29.99F
STAPLETON        N/A     67  35  31 CALM        N/A
GOTHENBURG       N/A     69  22  17 SW9         N/A
CALLAWAY         N/A     68  30  24 W16         N/A
$$

...OBSERVATIONS IN CENTRAL LINCOLN COUNTY AREA...

CITY           SKY/WX    TMP DP  RH WIND       PRES   REMARKS
N.P. AIRPORT   SUNNY     71  32  23 W15       29.98S
N.P. DOWNTOWN    N/A     70  35  27 CALM        N/A
N.P. SOUTHEAST   N/A     70  33  25 W6G13       N/A
N.P. HILLCREST   N/A     69  34  27 W12         N/A
$$

...SOME OBSERVATIONS FROM AROUND THE REGION...

CITY           SKY/WX    TMP DP  RH WIND       PRES   REMARKS
DENVER         PTSUNNY   67  22  18 W12       30.09F
LIMON          SUNNY     70  26  19 W12       30.11S
ASPEN          SUNNY     55  24  30 N3        30.40F
LARAMIE        CLOUDY    53  21  28 SW31G43   30.18S
CASPER         CLOUDY    60  26  27 SW33G40   30.04F
CHEYENNE       CLOUDY    62  21  20 W22G28    30.12R
SCOTTSBLUFF    CLOUDY    65  28  24 W17G24    29.99F
GRAND ISLAND   SUNNY     69  28  21 W15       30.01F
OMAHA          MOSUNNY   69  28  21 S10       30.01F
SIOUX FALLS    MOSUNNY   67  30  25 SW14      29.90F
PIERRE         PTSUNNY   70  28  21 SW13      29.80F
RAPID CITY     CLOUDY    69  29  22 SW12      29.84F
BISMARCK       CLOUDY    65  32  29 SW15      29.68F
KANSAS CITY    MOSUNNY   65  38  36 VRB3      30.09F
HILL CITY      SUNNY     71  20  14 SW14      30.05F
WICHITA        MOSUNNY   69  26  20 W3        30.10F
DODGE CITY     SUNNY     72  16  12 W14       30.09F
OKLAHOMA CITY  SUNNY     66  32  28 NW7       30.15F
DALLAS         MOSUNNY   74  36  25 N15       30.12S
AMARILLO       SUNNY     67  29  24 W16       30.20F
$$




USA.gov is the U.S. government's official web portal to all federal, state and local government web resources and services.